Regional Weather Roundup
Issued by NWS Kansas City/Pleasant Hill, MO

Home | Current Version | Previous Version | Graphics & Text | Print | Product List | Glossary Off
Versions: 1 2 3 4 5 6 7 8 9 10 11 12 13 14 15 16 17 18 19 20 21 22 23 24 25 26 27 28

000
ASUS43 KEAX 202210
RWREAX

WEATHER ROUNDUP FOR EASTERN KANSAS AND NORTHWEST MISSOURI
NATIONAL WEATHER SERVICE KANSAS CITY/PLEASANT HILL MO
500 PM CDT FRI OCT 20 2017

KSZ040-057-103>105-MOZ028-029-037-043-202300-
...KANSAS CITY METROPOLITAN AREA...

CITY           SKY/WX    TMP DP  RH WIND       PRES   REMARKS
K.C. INTL      PTSUNNY   72  59  63 S21G30    29.88F
K.C. DOWNTOWN  CLOUDY    75  60  59 SE14G20   29.89F
LEES SUMMIT    MOSUNNY   72  59  63 S18G24    29.92F
OLATHE - IXD   MOSUNNY   73  58  59 S24G36    29.89F
OLATHE - OJC   MOSUNNY   72  58  61 S20G32    29.90F
LAWRENCE       CLOUDY    75  59  57 SE18G31   29.86F

$$

MOZ001>008-011>017-020>025-030>033-038>040-044>046-053-054-202300-
...NORTHERN AND CENTRAL MISSOURI...

CITY           SKY/WX    TMP DP  RH WIND       PRES   REMARKS
ST. JOSEPH     LGT RAIN  75  59  57 S17G30    29.84F
WARRENSBURG    CLOUDY    72  55  56 SE12G20   29.94F
WHITEMAN AFB   PTSUNNY   71  56  58 SE14      29.92F
CLINTON        CLOUDY    72  55  56 S12       29.97F
SEDALIA        CLOUDY    71  57  61 S15       29.99F
WARSAW         NOT AVBL
CHILLICOTHE      N/A     70  56  61 S12G20    29.94F
KIRKSVILLE     CLOUDY    70  53  54 S17       29.98R

$$

MOZ041-047>049-056>058-063>065-088>090-097-202300-
...EASTERN AND SOUTHERN MISSOURI...

CITY           SKY/WX    TMP DP  RH WIND       PRES   REMARKS
ST. LOUIS INTL CLOUDY    74  50  42 SE14      30.06F
SPIRIT OF STL  CLOUDY    74  54  49 SE6       30.04F
COLUMBIA       CLOUDY    69  52  54 S8        30.01F
JEFFERSON CITY CLOUDY    72  51  47 SE6       30.01F
ROLLA          MOSUNNY   70  49  47 SE10      30.03F
OSAGE BEACH    CLOUDY    69  53  56 S5        30.03F
SPRINGFIELD    PTSUNNY   73  55  53 S17G24    30.01F
BRANSON        PTSUNNY   72  57  60 S15G22    30.07S
JOPLIN         SUNNY     73  58  59 SE18G26   29.95F
WEST PLAINS    CLOUDY    71  53  52 S10       30.11R

$$

IAZ060-094-KSZ022-034>040-054-083-096-NEZ052-066-093-202300-
...KANSAS...SOUTHEAST NEBRASKA AND IOWA...

CITY           SKY/WX    TMP DP  RH WIND       PRES   REMARKS
TOPEKA         MOSUNNY   77  60  55 S26G33    29.83F
MANHATTAN      PTSUNNY   77  59  53 S25G40    29.77S
EMPORIA        SUNNY     74  58  57 S23G37    29.83F
CHANUTE        SUNNY     75  58  55 S22G30    29.89F
WICHITA        PTSUNNY   75  59  57 S24G36    29.79F
OMAHA          PTSUNNY   76  58  53 S24G30    29.73F
LINCOLN        CLOUDY    75  59  57 S24G36    29.70F
FALLS CITY     MOSUNNY   75  58  55 S18G36    29.79F
LAMONI         CLOUDY    70  55  59 SE15G24   29.88F
DES MOINES     CLOUDY    72  52  49 S20       29.84F

$$





USA.gov is the U.S. government's official web portal to all federal, state and local government web resources and services.